QPF
0.00 0.00 0.00 0.00 0.00 0.00 0.00 0.00 0.08 0.18 0.27 0.07 0.11 0.12 0.05 0.06 0.05 0.03 0.08 0.08 0.08 0.07 0.05 0.09 0.07 0.05 0.02 0.00 0.00 0.00 0.01 0.01 0.01 0.00 0.01 0.04 0.07 0.15 0.08 0.08 0.03 0.00 0.02
0.00 0.00 0.00 0.00 0.00 0.00 0.00 0.00 0.02 0.06 0.05 0.02 0.02 0.02 0.02 0.04 0.02 0.02 0.03 0.07 0.09 0.06 0.09 0.03 0.06 0.04 0.04 0.04 0.02 0.02 0.03 0.05 0.09 0.04 0.02 0.04 0.07 0.10 0.09 0.09 0.05 0.00 0.00
0.00 0.00 0.00 0.00 0.00 0.00 0.00 0.00 0.00 0.02 0.04 0.03 0.01 0.05 0.01 0.02 0.02 0.01 0.01 0.02 0.03 0.01 0.01 0.00 0.00 0.01 0.02 0.02 0.03 0.02 0.02 0.03 0.03 0.03 0.03 0.00 0.01 0.01 0.01 0.01 0.00 0.00 0.00
0.00 0.00 0.00 0.00 0.00 0.00 0.00 0.00 0.00 0.03 0.07 0.06 0.03 0.01 0.01 0.01 0.05 0.02 0.02 0.00 0.00 0.00 0.00 0.00 0.00 0.01 0.01 0.00 0.01 0.02 0.01 0.02 0.03 0.03 0.02 0.00 0.02 0.03 0.05 0.04 0.03 0.00 0.00
0.00 0.00 0.00 0.00 0.00 0.00 0.00 0.00 0.00 0.03 0.04 0.05 0.05 0.06 0.03 0.07 0.05 0.03 0.00 0.00 0.00 0.00 0.00 0.00 0.01 0.01 0.00 0.00 0.00 0.00 0.02 0.02 0.02 0.03 0.02 0.02 0.02 0.06 0.06 0.04 0.04 0.03 0.03
0.00 0.00 0.00 0.00 0.00 0.00 0.00 0.01 0.02 0.07 0.11 0.11 0.08 0.06 0.09 0.16 0.12 0.00 0.00 0.00 0.00 0.00 0.00 0.00 0.00 0.00 0.02 0.00 0.00 0.00 0.00 0.00 0.02 0.04 0.04 0.04 0.02 0.04 0.05 0.02 0.03 0.04 0.02
0.00 0.00 0.00 0.00 0.00 0.00 0.00 0.05 0.02 0.08 0.22 0.17 0.04 0.03 0.05 0.06 0.00 0.00 0.00 0.00 0.00 0.00 0.00 0.00 0.00 0.00 0.01 0.02 0.01 0.00 0.00 0.00 0.00 0.00 0.00 0.00 0.00 0.01 0.01 0.01 0.02 0.02 0.04
0.00 0.00 0.00 0.00 0.00 0.00 0.00 0.03 0.00 0.05 0.11 0.13 0.04 0.03 0.06 0.02 0.00 0.00 0.00 0.00 0.00 0.00 0.00 0.00 0.00 0.00 0.00 0.00 0.00 0.02 0.05 0.03 0.01 0.00 0.00 0.00 0.00 0.01 0.01 0.00 0.01 0.02 0.02
0.00 0.00 0.00 0.00 0.00 0.00 0.00 0.00 0.01 0.09 0.11 0.09 0.11 0.08 0.06 0.00 0.00 0.00 0.00 0.01 0.00 0.00 0.00 0.00 0.00 0.00 0.00 0.00 0.00 0.00 0.02 0.02 0.01 0.00 0.00 0.00 0.00 0.00 0.00 0.00 0.01 0.02 0.01
0.00 0.00 0.00 0.00 0.00 0.00 0.00 0.01 0.03 0.05 0.08 0.14 0.12 0.06 0.02 0.00 0.00 0.00 0.00 0.00 0.00 0.00 0.01 0.00 0.00 0.00 0.00 0.00 0.00 0.00 0.00 0.00 0.01 0.01 0.00 0.00 0.00 0.00 0.00 0.00 0.00 0.01 0.03
0.00 0.00 0.00 0.00 0.00 0.00 0.01 0.02 0.01 0.03 0.07 0.07 0.05 0.01 0.00 0.00 0.00 0.00 0.00 0.00 0.00 0.00 0.00 0.00 0.00 0.00 0.00 0.00 0.00 0.00 0.00 0.00 0.00 0.00 0.00 0.01 0.01 0.03 0.05 0.04 0.04 0.05 0.04
0.00 0.00 0.00 0.00 0.00 0.00 0.00 0.00 0.01 0.02 0.02 0.02 0.00 0.00 0.00 0.00 0.00 0.00 0.00 0.00 0.00 0.00 0.00 0.00 0.00 0.00 0.00 0.00 0.00 0.00 0.00 0.00 0.00 0.00 0.00 0.00 0.00 0.01 0.01 0.02 0.04 0.06 0.08
0.00 0.00 0.00 0.00 0.00 0.00 0.00 0.00 0.00 0.00 0.00 0.00 0.00 0.00 0.00 0.00 0.00 0.00 0.00 0.00 0.00 0.00 0.00 0.00 0.00 0.00 0.00 0.00 0.00 0.00 0.00 0.00 0.00 0.00 0.00 0.00 0.00 0.00 0.00 0.00 0.01 0.02 0.02
0.00 0.00 0.00 0.00 0.01 0.01 0.01 0.00 0.00 0.00 0.00 0.00 0.00 0.00 0.00 0.00 0.00 0.00 0.00 0.00 0.00 0.00 0.00 0.00 0.00 0.00 0.00 0.00 0.00 0.00 0.00 0.00 0.00 0.00 0.00 0.00 0.00 0.00 0.00 0.00 0.00 0.00 0.00
0.00 0.00 0.00 0.02 0.04 0.04 0.02 0.01 0.00 0.00 0.00 0.00 0.00 0.00 0.00 0.00 0.00 0.00 0.00 0.00 0.00 0.00 0.00 0.00 0.00 0.00 0.00 0.00 0.00 0.00 0.00 0.00 0.00 0.00 0.00 0.00 0.00 0.00 0.00 0.00 0.00 0.00 0.00
0.00 0.01 0.02 0.03 0.03 0.03 0.10 0.04 0.03 0.01 0.01 0.00 0.02 0.04 0.01 0.00 0.00 0.00 0.00 0.00 0.00 0.00 0.00 0.00 0.00 0.00 0.00 0.00 0.00 0.00 0.00 0.00 0.00 0.00 0.00 0.00 0.00 0.00 0.00 0.00 0.00 0.00 0.00
0.01 0.02 0.07 0.08 0.08 0.17 0.08 0.02 0.01 0.00 0.01 0.00 0.03 0.04 0.01 0.00 0.00 0.00 0.00 0.00 0.00 0.00 0.00 0.00 0.00 0.00 0.00 0.00 0.00 0.00 0.00 0.00 0.00 0.00 0.00 0.00 0.00 0.00 0.00 0.00 0.00 0.00 0.00
0.03 0.08 0.20 0.24 0.25 0.19 0.11 0.07 0.03 0.02 0.00 0.00 0.02 0.01 0.00 0.00 0.00 0.00 0.00 0.00 0.00 0.00 0.00 0.00 0.00 0.00 0.00 0.00 0.00 0.00 0.00 0.00 0.00 0.00 0.00 0.00 0.00 0.00 0.00 0.00 0.00 0.00 0.00
0.00 0.05 0.20 0.35 0.22 0.13 0.07 0.02 0.02 0.01 0.00 0.00 0.00 0.00 0.00 0.00 0.00 0.00 0.00 0.00 0.00 0.00 0.00 0.00 0.00 0.00 0.00 0.00 0.00 0.00 0.00 0.00 0.00 0.00 0.00 0.00 0.00 0.00 0.00 0.00 0.00 0.00 0.00
0.03 0.14 0.26 0.24 0.31 0.21 0.05 0.01 0.00 0.00 0.00 0.00 0.00 0.00 0.00 0.00 0.00 0.00 0.00 0.00 0.00 0.00 0.00 0.00 0.00 0.00 0.00 0.00 0.00 0.00 0.00 0.00 0.00 0.00 0.00 0.00 0.00 0.00 0.00 0.00 0.00 0.00 0.00
0.05 0.08 0.18 0.19 0.18 0.27 0.38 0.16 0.03 0.00 0.00 0.00 0.00 0.00 0.00 0.00 0.00 0.00 0.00 0.00 0.00 0.00 0.00 0.00 0.00 0.00 0.00 0.00 0.00 0.00 0.00 0.00 0.00 0.00 0.00 0.00 0.00 0.00 0.00 0.00 0.00 0.00 0.00
0.00 0.00 0.00 0.06 0.12 0.08 0.09 0.12 0.07 0.02 0.00 0.00 0.00 0.00 0.00 0.00 0.00 0.00 0.00 0.00 0.00 0.00 0.00 0.00 0.00 0.00 0.00 0.00 0.00 0.00 0.00 0.00 0.00 0.00 0.00 0.00 0.00 0.00 0.00 0.00 0.00 0.00 0.00
0.00 0.00 0.00 0.02 0.05 0.04 0.03 0.02 0.00 0.00 0.00 0.00 0.00 0.00 0.00 0.00 0.00 0.00 0.00 0.00 0.00 0.00 0.00 0.00 0.00 0.00 0.00 0.00 0.00 0.00 0.00 0.00 0.00 0.00 0.00 0.00 0.00 0.00 0.00 0.00 0.00 0.00 0.00
0.00 0.00 0.00 0.00 0.00 0.00 0.00 0.00 0.00 0.00 0.00 0.00 0.00 0.00 0.00 0.00 0.00 0.00 0.00 0.00 0.00 0.00 0.00 0.00 0.00 0.00 0.00 0.00 0.00 0.00 0.00 0.00 0.00 0.00 0.00 0.00 0.00 0.00 0.00 0.00 0.00 0.00 0.00
0.00 0.00 0.00 0.00 0.00 0.00 0.00 0.00 0.00 0.00 0.00 0.00 0.00 0.00 0.00 0.00 0.00 0.00 0.00 0.00 0.00 0.00 0.00 0.00 0.00 0.00 0.00 0.00 0.00 0.00 0.00 0.00 0.00 0.00 0.00 0.00 0.00 0.00 0.00 0.00 0.00 0.00 0.00
0.00 0.00 0.00 0.02 0.01 0.01 0.00 0.00 0.00 0.00 0.00 0.00 0.00 0.00 0.00 0.00 0.00 0.00 0.00 0.00 0.00 0.00 0.00 0.00 0.00 0.00 0.00 0.00 0.00 0.00 0.00 0.00 0.00 0.00 0.00 0.00 0.00 0.00 0.00 0.00 0.00 0.00 0.00
MSLP
1009.41 1010.08 1010.73 1011.31 1011.93 1012.38 1012.36 1013.20 1014.72 1015.39 1014.77 1014.19 1014.93 1016.10 1015.12 1014.76 1014.94 1015.28 1015.64 1015.63 1015.78 1015.65 1015.50 1015.47 1015.54 1015.81 1015.72 1015.68 1015.71 1015.65 1015.90 1016.13 1016.37 1016.18 1016.38 1017.19 1017.95 1017.77 1017.88 1017.69 1017.04 1017.14 1017.43
1008.85 1009.38 1010.20 1010.71 1011.23 1012.01 1012.20 1012.48 1013.67 1014.33 1014.31 1014.32 1015.16 1014.69 1014.43 1014.25 1014.48 1015.09 1015.41 1015.45 1015.48 1015.65 1015.61 1015.49 1015.65 1015.70 1015.85 1015.87 1015.99 1016.06 1015.99 1016.14 1016.52 1016.51 1016.35 1016.63 1016.93 1016.88 1016.71 1016.82 1016.65 1016.41 1016.60
1008.29 1009.00 1009.51 1010.11 1010.53 1011.12 1011.83 1012.04 1012.39 1012.91 1013.75 1013.92 1014.00 1014.17 1013.98 1014.22 1014.55 1015.14 1015.26 1015.13 1015.21 1015.46 1015.40 1015.49 1015.58 1015.53 1015.60 1015.65 1015.82 1016.00 1015.95 1016.04 1016.22 1016.40 1016.36 1015.86 1016.14 1016.30 1016.35 1016.53 1016.40 1016.18 1016.20
1008.00 1008.59 1009.13 1009.78 1010.26 1010.54 1011.12 1011.76 1011.96 1012.50 1013.14 1013.56 1013.76 1013.85 1013.88 1014.17 1014.80 1015.04 1015.00 1015.22 1015.48 1015.35 1015.22 1015.47 1015.62 1015.61 1015.65 1015.65 1015.70 1015.86 1015.83 1015.91 1015.99 1016.16 1016.05 1015.79 1015.85 1015.92 1016.28 1016.62 1016.77 1016.59 1016.43
1007.63 1008.33 1008.75 1009.26 1009.85 1010.42 1010.66 1011.26 1011.95 1012.46 1012.86 1013.30 1013.68 1013.86 1014.20 1014.74 1014.56 1014.63 1015.06 1015.40 1015.34 1015.19 1015.21 1015.52 1015.75 1015.81 1015.79 1015.86 1016.05 1016.11 1016.21 1016.21 1016.14 1016.05 1016.00 1015.88 1016.03 1016.17 1016.40 1016.41 1016.45 1016.39 1016.10
1007.43 1008.28 1008.57 1009.14 1009.63 1010.27 1010.77 1011.24 1011.86 1012.28 1012.89 1013.37 1013.68 1013.82 1014.03 1014.44 1014.56 1014.85 1015.04 1015.13 1015.03 1015.40 1015.75 1015.92 1015.99 1016.09 1015.92 1015.98 1016.08 1016.09 1016.20 1016.42 1016.43 1016.29 1016.15 1016.03 1015.87 1016.12 1016.08 1016.18 1016.27 1016.39 1016.25
1007.37 1007.95 1008.42 1008.90 1009.35 1009.92 1010.63 1011.40 1011.70 1012.18 1012.41 1013.26 1013.36 1013.52 1014.18 1014.88 1015.04 1015.02 1015.15 1015.04 1015.36 1015.69 1016.01 1016.15 1016.17 1016.33 1016.56 1016.48 1016.17 1015.99 1015.97 1015.96 1016.05 1016.12 1016.17 1016.12 1015.97 1015.84 1015.79 1015.96 1016.08 1016.17 1016.04
1007.05 1007.40 1007.76 1008.40 1009.07 1009.66 1010.33 1011.08 1011.35 1012.04 1012.38 1013.09 1013.16 1013.37 1014.37 1015.28 1015.36 1015.18 1015.28 1015.32 1015.42 1015.71 1015.96 1016.16 1016.29 1016.51 1017.03 1017.06 1016.77 1016.21 1015.77 1015.45 1015.32 1015.55 1015.61 1015.63 1015.71 1015.73 1015.85 1015.84 1015.92 1015.92 1015.73
1006.31 1006.78 1007.32 1008.00 1008.58 1009.22 1009.93 1010.51 1011.02 1011.89 1012.25 1012.71 1013.03 1013.38 1014.47 1015.32 1015.41 1015.45 1015.63 1015.50 1015.50 1015.58 1015.92 1016.42 1016.47 1016.88 1017.28 1017.28 1016.95 1016.38 1015.88 1015.47 1014.94 1015.19 1015.38 1015.29 1015.16 1015.13 1015.32 1015.53 1015.49 1015.58 1015.44
1005.32 1006.05 1006.80 1007.52 1008.26 1008.78 1009.21 1009.92 1010.42 1011.36 1011.78 1012.45 1012.96 1013.68 1014.30 1015.12 1015.58 1015.79 1015.71 1015.43 1015.28 1015.36 1016.15 1017.01 1017.19 1017.55 1017.60 1017.38 1017.09 1016.56 1016.19 1015.95 1015.76 1015.53 1015.36 1015.10 1014.89 1014.71 1015.04 1015.19 1015.17 1015.23 1015.25
1005.34 1006.11 1006.78 1007.30 1007.85 1008.38 1008.80 1009.39 1010.11 1010.69 1011.35 1012.18 1013.12 1013.97 1014.62 1015.53 1016.21 1015.97 1015.75 1015.79 1015.77 1015.64 1016.11 1016.89 1017.57 1017.77 1017.67 1017.71 1017.61 1017.37 1017.08 1016.67 1016.17 1015.70 1015.39 1015.16 1014.85 1014.66 1014.83 1014.97 1014.85 1015.04 1015.00
1005.37 1006.08 1006.63 1007.20 1007.51 1008.01 1008.68 1009.42 1010.05 1010.76 1011.42 1012.12 1012.63 1013.64 1014.83 1015.83 1016.19 1016.12 1016.19 1016.22 1016.22 1016.17 1016.54 1017.11 1017.60 1017.72 1017.96 1018.00 1017.81 1017.62 1017.25 1016.68 1016.00 1015.63 1015.28 1015.31 1015.31 1015.20 1015.07 1014.68 1014.33 1014.26 1014.23
1005.03 1005.77 1006.45 1007.07 1007.26 1007.71 1008.62 1009.24 1009.89 1010.53 1011.19 1011.67 1012.35 1013.05 1014.40 1015.55 1016.09 1016.31 1016.36 1016.48 1016.51 1016.64 1016.85 1017.33 1017.61 1017.60 1017.77 1018.08 1017.99 1017.92 1017.57 1017.31 1016.97 1016.60 1016.30 1016.16 1015.93 1015.47 1015.08 1014.81 1014.47 1014.32 1014.02
1004.79 1005.38 1006.02 1006.65 1007.18 1007.95 1008.56 1009.55 1009.88 1010.28 1011.01 1011.34 1011.70 1012.40 1013.53 1014.78 1015.61 1016.11 1016.36 1016.51 1016.54 1016.70 1017.06 1017.30 1017.43 1017.47 1017.49 1017.70 1017.83 1017.97 1018.13 1017.97 1017.71 1017.46 1017.23 1016.94 1016.62 1016.18 1015.85 1015.62 1015.20 1014.80 1014.42
1004.50 1004.92 1005.54 1006.11 1006.90 1007.90 1009.33 1010.11 1010.38 1009.99 1010.61 1011.10 1011.16 1011.53 1012.63 1013.56 1014.62 1015.35 1015.61 1015.74 1016.24 1016.58 1016.71 1016.92 1017.21 1017.24 1017.39 1017.45 1017.69 1018.05 1018.13 1018.22 1018.24 1017.92 1017.73 1017.44 1017.02 1016.65 1016.59 1016.12 1015.75 1015.52 1015.23
1004.30 1004.80 1005.29 1005.98 1006.94 1008.44 1009.70 1011.07 1011.12 1011.51 1011.28 1010.74 1010.61 1011.34 1012.80 1012.82 1014.31 1014.93 1015.57 1016.01 1016.33 1016.61 1016.72 1016.67 1016.83 1017.08 1017.34 1017.63 1017.81 1018.08 1018.28 1018.58 1018.76 1018.47 1017.93 1017.71 1017.30 1017.11 1017.02 1016.58 1016.27 1016.15 1015.85
1004.23 1004.62 1005.19 1006.00 1006.89 1008.01 1009.12 1010.19 1011.28 1012.51 1012.04 1012.02 1011.91 1012.43 1012.53 1013.58 1014.39 1015.20 1015.98 1016.24 1016.29 1016.71 1016.75 1016.42 1016.66 1017.13 1017.67 1018.03 1018.07 1018.32 1018.19 1018.44 1018.81 1018.90 1018.62 1017.97 1017.43 1017.06 1016.97 1016.94 1016.90 1016.74 1016.51
1004.14 1004.47 1004.79 1005.60 1006.66 1007.72 1008.69 1010.16 1010.68 1011.37 1011.80 1012.91 1013.66 1013.54 1013.76 1014.25 1014.91 1015.56 1015.94 1016.33 1016.35 1016.43 1016.28 1016.35 1016.71 1017.10 1017.53 1018.01 1018.15 1018.43 1018.38 1018.25 1018.20 1018.32 1018.23 1017.94 1017.26 1016.90 1016.75 1016.67 1016.76 1016.77 1016.61
1004.28 1004.87 1005.09 1005.79 1006.19 1007.22 1007.94 1008.77 1009.60 1010.12 1011.42 1012.60 1013.74 1014.49 1015.02 1014.93 1015.49 1016.00 1016.23 1015.88 1015.37 1015.36 1015.69 1016.10 1016.25 1016.78 1017.47 1017.81 1017.95 1018.26 1018.33 1018.44 1018.42 1018.20 1017.98 1018.10 1017.66 1017.14 1016.86 1016.82 1016.71 1016.63 1016.45
1004.48 1005.35 1005.99 1006.23 1006.79 1006.96 1007.36 1008.38 1008.59 1009.68 1010.53 1011.80 1012.64 1013.33 1014.46 1014.90 1015.31 1015.47 1015.70 1015.38 1014.79 1014.75 1015.32 1015.69 1016.31 1016.92 1017.42 1017.78 1018.07 1018.23 1018.15 1018.33 1018.50 1018.28 1018.18 1018.28 1017.97 1017.46 1017.19 1016.96 1016.71 1016.51 1016.28
1005.20 1005.81 1006.32 1007.05 1007.05 1007.37 1008.04 1008.48 1009.21 1009.28 1010.17 1011.21 1011.26 1012.58 1013.27 1013.39 1013.75 1013.98 1014.06 1014.23 1014.07 1014.34 1015.05 1015.64 1016.21 1017.18 1017.67 1017.89 1018.01 1018.32 1018.78 1018.68 1018.49 1018.48 1018.37 1018.25 1017.99 1017.61 1017.26 1017.18 1016.99 1016.73 1016.39
1005.02 1005.44 1005.61 1006.47 1007.09 1007.73 1008.07 1008.36 1009.32 1009.17 1009.15 1010.36 1010.66 1011.66 1012.51 1012.67 1012.30 1012.50 1013.03 1013.71 1013.98 1014.46 1015.21 1015.70 1015.95 1016.43 1016.74 1017.29 1017.92 1018.34 1018.52 1018.60 1018.93 1019.09 1019.00 1018.80 1018.40 1017.82 1017.48 1017.54 1017.15 1016.89 1016.64
1004.77 1005.40 1005.84 1005.90 1006.49 1007.07 1007.34 1007.43 1007.60 1007.97 1007.96 1008.62 1009.97 1011.18 1012.09 1011.93 1011.66 1011.97 1012.71 1013.36 1014.21 1014.78 1015.25 1015.73 1016.13 1016.52 1017.03 1017.55 1017.83 1018.16 1018.82 1019.22 1019.53 1019.70 1019.67 1019.35 1018.98 1018.32 1017.74 1017.40 1017.20 1016.82 1016.48
1003.94 1004.23 1004.69 1005.10 1005.08 1005.39 1005.79 1006.12 1006.07 1006.40 1006.87 1007.65 1009.09 1010.04 1010.86 1011.18 1011.14 1011.61 1012.41 1013.34 1014.13 1014.84 1015.36 1015.89 1015.81 1016.43 1017.39 1017.56 1018.04 1018.73 1019.53 1020.19 1020.24 1020.15 1020.11 1019.61 1018.97 1018.55 1017.92 1017.31 1016.89 1016.73 1016.78
1003.04 1003.27 1003.56 1003.72 1003.90 1004.12 1004.50 1004.88 1005.05 1005.56 1006.19 1006.83 1007.74 1008.90 1009.87 1010.38 1010.29 1011.05 1012.07 1013.20 1014.03 1014.55 1015.01 1015.58 1016.22 1016.87 1017.46 1017.83 1018.71 1019.35 1020.25 1020.50 1020.46 1020.72 1020.23 1019.86 1019.13 1018.58 1017.84 1017.52 1017.28 1016.98 1016.62
1001.96 1001.95 1002.36 1002.82 1003.18 1003.42 1003.79 1004.37 1004.97 1005.37 1005.96 1006.59 1007.28 1008.18 1008.93 1009.50 1009.99 1010.80 1012.06 1012.88 1013.77 1014.33 1014.68 1015.20 1015.78 1016.85 1017.45 1017.92 1018.68 1019.66 1020.13 1020.42 1020.52 1020.70 1020.50 1019.92 1019.01 1018.17 1017.75 1017.51 1017.32 1017.00 1016.51
Thickness
5827 5820 5815 5809 5805 5803 5804 5792 5785 5781 5791 5798 5792 5779 5790 5797 5796 5794 5793 5794 5792 5794 5795 5792 5792 5789 5785 5787 5785 5785 5780 5775 5764 5767 5770 5761 5752 5748 5750 5749 5753 5758 5753
5827 5821 5814 5812 5808 5799 5801 5800 5790 5784 5790 5791 5786 5790 5796 5801 5800 5794 5793 5795 5793 5790 5790 5790 5788 5788 5784 5784 5782 5780 5780 5775 5765 5759 5765 5762 5758 5760 5760 5760 5760 5758 5756
5830 5822 5819 5816 5813 5806 5799 5802 5800 5799 5794 5794 5794 5792 5797 5799 5797 5794 5795 5795 5793 5790 5790 5788 5788 5788 5785 5784 5782 5779 5778 5775 5771 5763 5761 5770 5766 5763 5760 5758 5757 5757 5755
5835 5828 5821 5817 5814 5812 5806 5801 5802 5799 5794 5792 5794 5796 5800 5798 5794 5794 5794 5790 5788 5790 5791 5789 5787 5787 5785 5783 5781 5777 5776 5774 5771 5766 5763 5764 5765 5763 5758 5751 5745 5748 5746
5836 5829 5825 5822 5818 5814 5811 5806 5800 5798 5797 5796 5796 5796 5796 5793 5796 5796 5792 5789 5790 5789 5790 5789 5786 5785 5784 5781 5777 5774 5771 5768 5767 5764 5762 5761 5758 5755 5749 5750 5746 5746 5747
5838 5828 5824 5821 5818 5814 5810 5806 5801 5799 5798 5795 5795 5797 5797 5795 5792 5792 5792 5791 5791 5786 5783 5783 5782 5780 5781 5779 5776 5773 5770 5764 5761 5760 5758 5756 5755 5752 5753 5749 5746 5740 5735
5837 5832 5828 5823 5819 5816 5811 5803 5802 5800 5796 5792 5797 5798 5792 5788 5787 5790 5790 5792 5787 5784 5780 5779 5779 5777 5773 5773 5774 5772 5769 5766 5762 5758 5753 5752 5751 5752 5751 5746 5742 5738 5733
5840 5835 5833 5827 5822 5818 5813 5805 5805 5801 5798 5792 5795 5798 5789 5781 5781 5786 5786 5788 5785 5783 5781 5779 5776 5773 5766 5764 5764 5766 5768 5768 5765 5761 5758 5756 5754 5751 5747 5744 5740 5737 5736
5844 5840 5836 5832 5827 5822 5815 5810 5807 5802 5798 5796 5795 5793 5785 5780 5779 5780 5780 5783 5781 5780 5780 5774 5773 5767 5761 5759 5760 5761 5762 5762 5764 5760 5757 5756 5755 5752 5749 5744 5738 5733 5730
5853 5848 5843 5838 5831 5826 5823 5818 5816 5807 5802 5797 5793 5789 5783 5779 5775 5774 5778 5783 5782 5781 5774 5763 5761 5759 5756 5756 5757 5758 5756 5755 5754 5754 5754 5754 5753 5752 5747 5743 5739 5731 5728
5856 5849 5843 5839 5834 5831 5827 5823 5817 5812 5807 5799 5791 5784 5779 5773 5767 5770 5775 5777 5775 5775 5772 5764 5758 5754 5753 5750 5747 5748 5747 5747 5749 5751 5750 5749 5748 5747 5744 5738 5736 5731 5725
5853 5846 5841 5838 5836 5831 5826 5820 5816 5810 5803 5797 5793 5783 5775 5767 5765 5767 5768 5767 5767 5768 5763 5758 5752 5750 5747 5745 5745 5743 5743 5746 5748 5748 5748 5744 5740 5738 5736 5735 5734 5731 5728
5850 5842 5837 5835 5834 5831 5822 5817 5813 5809 5802 5797 5791 5786 5774 5766 5764 5763 5763 5763 5763 5761 5758 5752 5749 5749 5746 5740 5740 5737 5737 5735 5734 5733 5732 5731 5731 5733 5732 5731 5729 5726 5724
5844 5841 5838 5832 5829 5825 5820 5815 5812 5807 5799 5797 5795 5788 5780 5771 5766 5764 5763 5761 5760 5758 5752 5750 5748 5748 5747 5741 5736 5731 5725 5723 5722 5721 5720 5720 5720 5720 5720 5719 5717 5716 5714
5840 5839 5835 5831 5826 5819 5808 5804 5806 5805 5801 5797 5796 5796 5786 5779 5774 5767 5766 5765 5759 5752 5751 5749 5746 5744 5740 5737 5732 5725 5722 5717 5712 5712 5710 5709 5710 5710 5706 5706 5704 5702 5698
5834 5832 5829 5823 5816 5804 5794 5785 5785 5781 5783 5792 5797 5794 5784 5783 5768 5765 5760 5757 5752 5747 5746 5747 5743 5740 5734 5728 5724 5719 5714 5709 5703 5702 5703 5702 5702 5698 5694 5694 5692 5687 5683
5827 5825 5821 5812 5805 5796 5788 5783 5775 5767 5769 5773 5777 5777 5779 5771 5765 5758 5752 5749 5748 5742 5741 5744 5739 5732 5722 5718 5716 5712 5710 5705 5697 5690 5688 5692 5693 5692 5686 5681 5677 5673 5668
5820 5814 5813 5804 5795 5789 5780 5772 5771 5767 5765 5762 5757 5761 5759 5759 5754 5749 5744 5740 5742 5738 5739 5736 5731 5725 5718 5712 5708 5704 5701 5699 5695 5689 5685 5684 5686 5685 5681 5676 5670 5663 5659
5809 5802 5798 5792 5787 5779 5776 5774 5769 5766 5760 5754 5748 5745 5740 5744 5741 5738 5736 5741 5744 5742 5738 5732 5729 5719 5711 5707 5704 5699 5695 5689 5685 5684 5681 5673 5673 5674 5671 5666 5661 5656 5650
5798 5784 5775 5768 5762 5761 5761 5759 5761 5757 5755 5747 5748 5748 5738 5736 5738 5737 5736 5736 5740 5740 5733 5727 5719 5711 5704 5699 5694 5690 5688 5683 5677 5676 5671 5664 5662 5662 5659 5655 5651 5646 5642
5779 5768 5752 5737 5740 5742 5737 5726 5742 5748 5742 5742 5750 5742 5736 5739 5738 5740 5739 5737 5738 5736 5728 5720 5712 5699 5692 5688 5685 5681 5673 5671 5669 5666 5663 5658 5654 5652 5648 5642 5637 5632 5628
5773 5764 5753 5737 5734 5732 5735 5734 5728 5736 5747 5739 5747 5742 5733 5735 5741 5741 5737 5732 5730 5726 5717 5710 5707 5699 5693 5686 5678 5672 5668 5663 5656 5651 5648 5644 5641 5639 5635 5626 5623 5618 5612
5773 5763 5753 5748 5739 5734 5734 5739 5742 5742 5746 5748 5746 5736 5730 5735 5738 5737 5733 5729 5719 5712 5707 5700 5695 5688 5680 5674 5669 5662 5655 5649 5642 5636 5632 5629 5624 5624 5623 5619 5612 5607 5600
5773 5771 5765 5760 5761 5756 5752 5750 5753 5751 5756 5754 5747 5740 5736 5732 5735 5735 5729 5720 5711 5704 5697 5690 5689 5680 5669 5665 5659 5651 5641 5632 5626 5622 5618 5617 5616 5612 5611 5609 5604 5595 5583
5774 5771 5770 5769 5768 5767 5763 5761 5762 5760 5758 5756 5752 5743 5735 5733 5738 5733 5722 5712 5703 5698 5693 5684 5676 5667 5659 5654 5647 5639 5630 5624 5618 5611 5608 5605 5604 5602 5602 5596 5588 5579 5571
5778 5778 5775 5771 5769 5765 5763 5760 5757 5756 5751 5748 5746 5741 5738 5735 5731 5726 5714 5706 5696 5691 5685 5679 5671 5657 5649 5643 5637 5630 5623 5615 5608 5603 5599 5595 5596 5597 5592 5585 5575 5566 5560